EA1FJG Weather Reports


Display with metric or nautical units.
time (UTC)temp
F
wind
direction
speed
MPH
gust
MPH
rain 1hr
in
rain 24hr
in
rain mn
in
humidity
%
barometer
mb
20260502224403 54 0 0.0 0.0 0.00 0.86 0.00 99 1015.5
20260502224303 54 41 0.0 1.0 0.00 0.86 0.00 99 1015.4
20260502224202 54 41 0.0 1.0 0.00 0.86 0.00 99 1015.6
20260502224103 54 41 0.0 1.0 0.00 0.86 0.00 99 1015.3
20260502224003 54 41 0.0 1.0 0.00 0.86 0.00 99 1015.5
20260502223903 54 41 0.0 1.0 0.00 0.86 0.00 99 1015.6
20260502223803 54 41 0.0 1.0 0.00 0.86 0.00 99 1015.4
20260502223703 54 41 0.0 1.0 0.00 0.86 0.00 99 1015.4
20260502223603 54 41 0.0 1.0 0.00 0.86 0.00 99 1015.4
20260502223502 54 41 0.0 1.0 0.00 0.86 0.00 99 1015.5
20260502223424 54 41 0.0 1.0 0.00 0.86 0.00 99 1015.5
20260502223302 54 41 0.0 1.0 0.00 0.86 0.00 99 1015.5
20260502223203 54 41 0.0 1.0 0.00 0.86 0.00 99 1015.5
20260502223102 54 41 0.0 1.0 0.00 0.86 0.00 99 1015.4
20260502223024 54 41 0.0 1.0 0.00 0.86 0.00 99 1015.5
20260502222902 54 0 0.0 0.0 0.00 0.86 0.00 99 1015.3
20260502222803 54 0 0.0 0.0 0.00 0.86 0.00 99 1015.4
20260502222724 54 0 0.0 0.0 0.00 0.86 0.00 99 1015.5
20260502222603 54 0 0.0 0.0 0.00 0.86 0.00 99 1015.6
20260502222524 54 0 0.0 0.0 0.00 0.86 0.00 99 1015.5
20260502222403 54 0 0.0 0.0 0.00 0.86 0.00 99 1015.4
20260502222305 54 44 0.0 1.0 0.00 0.86 0.00 99 1015.5
20260502222203 54 44 0.0 1.0 0.00 0.86 0.00 99 1015.6
20260502222103 54 46 0.0 1.0 0.00 0.86 0.00 99 1015.5
20260502222024 54 46 0.0 1.0 0.00 0.86 0.00 99 1015.5
20260502221903 54 46 0.0 1.0 0.00 0.86 0.00 99 1015.4
20260502221803 54 46 0.0 1.0 0.00 0.86 0.00 99 1015.5
20260502221702 54 46 0.0 1.0 0.00 0.86 0.00 99 1015.4
20260502221603 54 46 0.0 1.0 0.00 0.86 0.00 99 1015.6
20260502221503 54 45 0.0 1.0 0.00 0.86 0.00 99 1015.6
20260502221403 54 45 0.0 1.0 0.00 0.86 0.00 99 1015.6
20260502221303 54 45 0.0 1.0 0.00 0.86 0.00 99 1015.4
20260502221202 54 45 0.0 1.0 0.00 0.86 0.00 99 1015.4
20260502221103 54 45 0.0 1.0 0.00 0.86 0.00 99 1015.5
20260502221003 54 45 0.0 1.0 0.00 0.86 0.00 99 1015.6
20260502220902 54 45 0.0 1.0 0.00 0.86 0.00 99 1015.5
20260502220803 54 42 0.0 1.0 0.00 0.86 0.00 99 1015.4
20260502220703 54 42 0.0 1.0 0.00 0.86 0.00 99 1015.4
20260502220603 54 42 0.0 1.0 0.00 0.86 0.00 99 1015.5
20260502220503 54 42 0.0 1.0 0.00 0.86 0.00 99 1015.5
20260502220403 54 42 0.0 1.0 0.00 0.86 0.00 99 1015.5
20260502220302 54 42 0.0 1.0 0.00 0.86 0.00 99 1015.6
20260502220224 54 42 0.0 1.0 0.00 0.86 0.00 99 1015.6
20260502220003 54 42 0.0 1.0 0.00 0.86 0.00 99 1015.5
20260502215903 54 42 0.0 1.0 0.00 0.86 0.86 99 1015.4
20260502215802 54 42 0.0 1.0 0.00 0.86 0.86 99 1015.4
20260502215702 54 42 0.0 1.0 0.00 0.86 0.86 99 1015.5
20260502215623 54 0 0.0 0.0 0.00 0.86 0.86 99 1015.4
20260502215503 54 0 0.0 0.0 0.00 0.86 0.86 99 1015.7
20260502215403 54 0 0.0 0.0 0.00 0.86 0.86 99 1015.6
20260502215324 54 0 0.0 0.0 0.00 0.86 0.86 99 1015.6
20260502215203 54 0 0.0 0.0 0.00 0.86 0.86 99 1015.6
20260502215103 54 0 0.0 0.0 0.00 0.86 0.86 99 1015.5
20260502215024 54 0 0.0 0.0 0.00 0.86 0.86 99 1015.5
20260502214903 54 0 0.0 0.0 0.00 0.86 0.86 99 1015.5
20260502214803 54 0 0.0 0.0 0.00 0.86 0.86 99 1015.6
20260502214703 54 0 0.0 0.0 0.00 0.86 0.86 99 1015.6
20260502214603 54 0 0.0 0.0 0.00 0.86 0.86 99 1015.5
20260502214503 54 0 0.0 0.0 0.00 0.86 0.86 99 1015.5
20260502214403 54 0 0.0 0.0 0.00 0.86 0.86 99 1015.4
20260502214303 54 0 0.0 0.0 0.00 0.86 0.86 99 1015.7
20260502214203 54 0 0.0 0.0 0.00 0.86 0.86 99 1015.6
20260502214102 54 0 0.0 0.0 0.00 0.86 0.86 99 1015.5
20260502214003 55 0 0.0 0.0 0.00 0.86 0.86 99 1015.5
20260502213903 55 0 0.0 0.0 0.00 0.86 0.86 99 1015.5
20260502213803 55 0 0.0 0.0 0.00 0.86 0.86 99 1015.4
20260502213703 55 0 0.0 0.0 0.00 0.86 0.86 99 1015.4
20260502213603 55 0 0.0 0.0 0.00 0.86 0.86 99 1015.7
20260502213503 55 0 0.0 0.0 0.00 0.86 0.86 99 1015.7
20260502213403 55 0 0.0 0.0 0.00 0.86 0.86 99 1015.7
20260502213303 55 0 0.0 0.0 0.00 0.86 0.86 99 1015.6
20260502213203 55 0 0.0 0.0 0.00 0.86 0.86 99 1015.5
20260502213103 55 0 0.0 0.0 0.00 0.86 0.86 99 1015.7
20260502213003 55 0 0.0 0.0 0.00 0.86 0.86 99 1015.8
20260502212924 55 0 0.0 0.0 0.00 0.86 0.86 99 1015.6
20260502212824 55 41 0.0 1.0 0.00 0.86 0.86 99 1015.7
20260502212703 55 41 0.0 1.0 0.00 0.86 0.86 99 1015.5
20260502212603 55 41 0.0 1.0 0.00 0.86 0.86 99 1015.7
20260502212503 55 41 0.0 1.0 0.00 0.86 0.86 99 1015.6
20260502212424 55 41 0.0 1.0 0.00 0.86 0.86 99 1015.6
20260502212304 55 41 0.0 1.0 0.00 0.86 0.86 99 1015.5
20260502212203 55 41 0.0 1.0 0.00 0.86 0.86 99 1015.5
20260502212103 55 41 0.0 1.0 0.00 0.86 0.86 99 1015.7
20260502212024 55 41 0.0 1.0 0.00 0.86 0.86 99 1015.6
20260502211903 55 41 0.0 1.0 0.00 0.86 0.86 99 1015.8
20260502211803 55 41 0.0 1.0 0.00 0.86 0.86 99 1015.5
20260502211724 55 41 0.0 1.0 0.00 0.86 0.86 99 1015.7
20260502211603 55 41 0.0 1.0 0.00 0.86 0.86 99 1015.7
20260502211503 55 41 0.0 1.0 0.00 0.86 0.86 99 1015.6
20260502211403 55 41 0.0 1.0 0.00 0.86 0.86 99 1015.7
20260502211303 55 0 0.0 0.0 0.00 0.86 0.86 99 1015.6
20260502211203 55 0 0.0 0.0 0.00 0.86 0.86 99 1015.5
20260502211103 55 0 0.0 0.0 0.00 0.86 0.86 99 1015.7
20260502211003 55 0 0.0 0.0 0.00 0.86 0.86 99 1015.6
20260502210903 55 0 0.0 0.0 0.00 0.86 0.86 99 1015.7
20260502210824 55 0 0.0 0.0 0.00 0.86 0.86 99 1015.7
20260502210703 55 0 0.0 0.0 0.00 0.86 0.86 99 1015.6
20260502210603 55 0 0.0 0.0 0.00 0.86 0.86 99 1015.6
20260502210503 55 0 0.0 0.0 0.00 0.86 0.86 99 1015.7
20260502210403 55 0 0.0 0.0 0.00 0.86 0.86 99 1015.6
20260502210303 55 0 0.0 0.0 0.00 0.86 0.86 99 1015.5
20260502210224 55 0 0.0 0.0 0.00 0.86 0.86 99 1015.8
20260502210003 55 0 0.0 0.0 0.00 0.86 0.86 99 1015.7
20260502205903 55 0 0.0 0.0 0.00 0.86 0.86 99 1015.7
20260502205803 55 0 0.0 0.0 0.00 0.86 0.86 99 1015.7
20260502205702 55 0 0.0 0.0 0.00 0.86 0.86 99 1015.7
20260502205603 55 0 0.0 0.0 0.00 0.86 0.86 99 1015.7
20260502205503 55 0 0.0 0.0 0.00 0.86 0.86 99 1015.5
20260502205403 55 0 0.0 0.0 0.00 0.86 0.86 99 1015.6
20260502205305 55 0 0.0 0.0 0.00 0.86 0.86 99 1015.6
20260502205203 55 46 0.0 1.0 0.00 0.86 0.86 99 1015.7
20260502205103 55 46 0.0 1.0 0.00 0.86 0.86 99 1015.6
20260502205003 55 46 0.0 1.0 0.00 0.86 0.86 99 1015.6
20260502204903 55 46 0.0 1.0 0.00 0.86 0.86 99 1015.5
20260502204803 55 46 0.0 1.0 0.00 0.86 0.86 99 1015.7
20260502204703 55 46 0.0 1.0 0.00 0.86 0.86 99 1015.6
20260502204603 55 46 0.0 1.0 0.00 0.86 0.86 99 1015.6
20260502204503 55 46 0.0 1.0 0.00 0.86 0.86 99 1015.6
20260502204403 55 46 0.0 1.0 0.00 0.86 0.86 99 1015.7
20260502204324 55 46 0.0 1.0 0.00 0.86 0.86 99 1015.6
20260502204203 55 44 0.0 1.0 0.00 0.86 0.86 99 1015.8
20260502204124 55 46 0.0 2.0 0.00 0.86 0.86 99 1015.7
20260502204003 55 46 0.0 2.0 0.01 0.86 0.86 99 1015.7
20260502203903 55 46 0.0 2.0 0.01 0.86 0.86 99 1015.6
20260502203803 55 45 0.0 2.0 0.01 0.86 0.86 99 1015.7
20260502203724 55 45 0.0 2.0 0.02 0.86 0.86 99 1015.7
20260502203603 55 45 1.0 2.0 0.02 0.86 0.86 99 1015.5
20260502203503 55 45 1.0 2.0 0.03 0.86 0.86 99 1015.6
20260502203403 55 45 1.0 2.0 0.03 0.86 0.86 99 1015.6
20260502203303 55 45 1.0 2.0 0.03 0.86 0.86 99 1015.8
20260502203203 55 45 1.0 2.0 0.04 0.86 0.86 99 1015.7
20260502203103 55 46 1.0 2.0 0.05 0.86 0.86 99 1015.7
20260502203003 55 44 0.0 1.0 0.05 0.86 0.86 99 1015.7
20260502202903 55 44 0.0 1.0 0.06 0.86 0.86 99 1015.6
20260502202824 55 43 0.0 1.0 0.06 0.86 0.86 99 1015.6
20260502202703 55 43 0.0 1.0 0.06 0.86 0.86 99 1015.5
20260502202603 55 0 0.0 0.0 0.06 0.86 0.86 99 1015.4
20260502202503 55 0 0.0 0.0 0.06 0.86 0.86 99 1015.4
20260502202403 55 0 0.0 0.0 0.06 0.86 0.86 99 1015.4
20260502202324 55 0 0.0 0.0 0.07 0.86 0.86 99 1015.4
20260502202203 55 0 0.0 0.0 0.07 0.86 0.86 99 1015.4
20260502202103 55 0 0.0 0.0 0.08 0.86 0.86 99 1015.6
20260502202003 55 0 0.0 0.0 0.08 0.86 0.86 99 1015.4
20260502201903 55 0 0.0 0.0 0.09 0.86 0.86 99 1015.6
20260502201803 55 0 0.0 0.0 0.09 0.86 0.86 99 1015.6
20260502201703 55 0 0.0 0.0 0.10 0.86 0.86 99 1015.3
20260502201603 55 0 0.0 0.0 0.10 0.86 0.86 99 1015.3
20260502201524 55 0 0.0 0.0 0.11 0.86 0.86 99 1015.3
20260502201424 55 0 0.0 0.0 0.11 0.86 0.86 99 1015.4
20260502201324 55 0 0.0 0.0 0.14 0.86 0.86 99 1015.4
20260502201203 55 0 0.0 0.0 0.14 0.86 0.86 99 1015.5
20260502201103 55 0 0.0 0.0 0.16 0.86 0.86 99 1015.4
20260502201003 55 0 0.0 0.0 0.16 0.86 0.86 99 1015.4
20260502200903 55 0 0.0 0.0 0.17 0.86 0.86 99 1015.3
20260502200803 55 0 0.0 0.0 0.19 0.86 0.86 99 1015.5
20260502200703 55 0 0.0 0.0 0.19 0.86 0.86 99 1015.3
20260502200603 55 0 0.0 0.0 0.20 0.86 0.86 99 1015.4
20260502200503 55 0 0.0 0.0 0.22 0.86 0.86 99 1015.4
20260502200403 55 0 0.0 0.0 0.22 0.86 0.86 99 1015.2
20260502200303 55 0 0.0 0.0 0.23 0.86 0.86 99 1015.1
20260502200203 55 0 0.0 0.0 0.24 0.86 0.86 99 1015.1
20260502200024 55 43 0.0 1.0 0.26 0.86 0.86 99 1015.3
20260502195903 55 45 0.0 1.0 0.27 0.86 0.86 99 1015.2
20260502195803 55 40 0.0 1.0 0.27 0.86 0.86 99 1015.3
20260502195703 55 35 0.0 1.0 0.28 0.86 0.86 99 1015.3
20260502195603 55 35 0.0 1.0 0.28 0.86 0.86 99 1015.4
20260502195503 55 35 0.0 1.0 0.30 0.86 0.86 99 1015.2
20260502195424 55 35 0.0 1.0 0.30 0.86 0.86 99 1015.2
20260502195305 55 35 0.0 1.0 0.31 0.86 0.86 99 1015.3
20260502195224 55 35 0.0 1.0 0.31 0.86 0.86 99 1015.2
20260502195103 55 34 0.0 1.0 0.31 0.86 0.86 99 1015.3
20260502195003 55 30 0.0 1.0 0.31 0.86 0.86 99 1015.2
20260502194903 55 22 0.0 1.0 0.31 0.86 0.86 99 1015.2
20260502194803 55 18 0.0 1.0 0.31 0.86 0.86 99 1015.3
20260502194703 55 7 0.0 1.0 0.31 0.86 0.86 99 1015.3
20260502194603 55 7 0.0 1.0 0.31 0.86 0.86 99 1015.3
20260502194503 55 7 0.0 1.0 0.31 0.86 0.86 99 1015.3
20260502194403 55 11 0.0 1.0 0.31 0.86 0.86 99 1015.4
20260502194303 55 11 0.0 1.0 0.32 0.86 0.86 99 1015.3
20260502194203 55 11 0.0 1.0 0.32 0.86 0.86 99 1015.2
20260502194103 55 11 0.0 1.0 0.32 0.86 0.86 99 1015.3
20260502194024 55 11 0.0 1.0 0.31 0.85 0.85 99 1015.5
20260502193903 55 12 0.0 1.0 0.31 0.85 0.85 99 1015.3
20260502193803 55 12 0.0 1.0 0.31 0.85 0.85 99 1015.5
20260502193703 55 12 0.0 1.0 0.30 0.84 0.84 99 1015.3
20260502193603 55 14 0.0 1.0 0.31 0.84 0.84 99 1015.2
20260502193524 55 17 0.0 1.0 0.30 0.83 0.83 99 1015.2
20260502193403 55 17 0.0 1.0 0.30 0.83 0.83 99 1015.2
20260502193303 55 17 0.0 1.0 0.30 0.83 0.83 99 1015.2
20260502193224 55 17 0.0 1.0 0.29 0.82 0.83 99 1015.2
20260502193103 55 14 0.0 1.0 0.28 0.81 0.81 99 1015.2
20260502193003 55 14 0.0 1.0 0.28 0.81 0.81 99 1015.2
20260502192903 55 13 0.0 1.0 0.27 0.80 0.81 99 1015.2
20260502192803 55 12 0.0 1.0 0.27 0.80 0.80 99 1015.3
20260502192703 55 12 0.0 1.0 0.27 0.80 0.80 99 1015.1
20260502192603 55 12 0.0 1.0 0.27 0.80 0.80 99 1015.1
20260502192524 55 12 0.0 1.0 0.27 0.80 0.80 99 1015.1
20260502192424 55 12 0.0 1.0 0.27 0.80 0.80 99 1015.1
20260502192305 55 12 0.0 1.0 0.26 0.79 0.79 99 1015.1
20260502192203 55 12 0.0 1.0 0.26 0.79 0.79 99 1015.1
20260502192103 55 11 0.0 1.0 0.25 0.78 0.78 99 1015.3
20260502192003 55 11 0.0 1.0 0.25 0.78 0.78 99 1015.1
20260502191903 55 10 0.0 1.0 0.24 0.77 0.77 99 1015.1
20260502191824 55 10 0.0 1.0 0.24 0.77 0.77 99 1015.1
20260502191703 55 359 0.0 2.0 0.23 0.76 0.76 99 1015.1
20260502191603 55 2 0.0 2.0 0.23 0.76 0.76 99 1015.1
20260502191524 55 2 0.0 2.0 0.22 0.75 0.76 99 1015.1
20260502191424 55 4 0.0 2.0 0.22 0.75 0.75 99 1015.2
20260502191303 55 4 0.0 2.0 0.19 0.72 0.73 99 1015.1
20260502191224 55 4 0.0 2.0 0.19 0.72 0.72 99 1015.2
20260502191103 55 6 1.0 2.0 0.17 0.70 0.71 99 1015.0
20260502191003 55 9 1.0 3.0 0.17 0.70 0.70 99 1015.0
20260502190903 55 11 1.0 3.0 0.16 0.69 0.69 99 1015.1
20260502190803 56 13 1.0 3.0 0.14 0.67 0.67 99 1015.3
20260502190703 56 19 1.0 3.0 0.14 0.67 0.67 99 1015.2
20260502190603 56 22 1.0 3.0 0.13 0.66 0.66 99 1015.3
20260502190503 56 24 1.0 3.0 0.11 0.64 0.64 99 1015.0
20260502190403 56 28 1.0 3.0 0.11 0.64 0.64 99 1015.0
20260502190303 56 28 1.0 3.0 0.10 0.63 0.63 99 1015.2
20260502190203 56 28 1.0 3.0 0.09 0.62 0.62 99 1015.1
20260502190003 56 31 0.0 2.0 0.07 0.60 0.60 99 1015.1
20260502185903 56 33 0.0 2.0 0.06 0.59 0.59 99 1015.0
20260502185803 56 33 0.0 2.0 0.06 0.59 0.59 99 1015.0
20260502185703 56 33 0.0 2.0 0.05 0.58 0.58 99 1015.1
20260502185603 56 33 0.0 2.0 0.05 0.58 0.58 99 1015.1
20260502185503 56 31 0.0 2.0 0.03 0.56 0.57 99 1015.3
20260502185403 56 30 0.0 2.0 0.03 0.56 0.56 99 1015.3
20260502185305 56 15 0.0 1.0 0.02 0.55 0.55 99 1015.2
20260502185203 56 15 0.0 1.0 0.02 0.55 0.55 99 1015.2
20260502185103 56 13 0.0 1.0 0.02 0.55 0.55 99 1015.0
20260502185003 56 12 0.0 2.0 0.02 0.55 0.55 99 1015.1
20260502184903 56 8 1.0 3.0 0.02 0.55 0.55 99 1015.1
20260502184803 56 5 1.0 3.0 0.02 0.55 0.55 99 1015.0
20260502184703 56 5 1.0 3.0 0.02 0.55 0.55 99 1015.0
20260502184603 56 6 1.0 3.0 0.02 0.55 0.55 99 1015.0
20260502184503 56 6 1.0 3.0 0.02 0.55 0.55 99 1015.0
20260502184403 56 6 1.0 3.0 0.02 0.55 0.55 99 1014.8
20260502184303 56 6 2.0 3.0 0.01 0.54 0.54 99 1015.1
20260502184203 56 6 2.0 3.0 0.01 0.54 0.54 99 1015.1
20260502184103 56 6 2.0 3.0 0.01 0.54 0.54 99 1015.1
20260502184003 56 7 2.0 3.0 0.01 0.54 0.54 99 1014.8
20260502183903 56 7 1.0 3.0 0.01 0.54 0.54 99 1014.9
20260502183803 56 7 1.0 3.0 0.01 0.54 0.54 99 1014.9
20260502183703 56 10 1.0 3.0 0.01 0.54 0.54 99 1014.8
20260502183603 56 10 2.0 3.0 0.00 0.53 0.53 99 1014.8
20260502183503 56 10 1.0 3.0 0.00 0.53 0.53 99 1014.9
20260502183403 56 10 1.0 3.0 0.00 0.53 0.53 99 1014.9
20260502183303 56 12 1.0 3.0 0.00 0.53 0.53 99 1014.8
20260502183203 56 12 1.0 3.0 0.00 0.53 0.53 99 1014.8
20260502183103 56 12 1.0 3.0 0.00 0.53 0.53 99 1014.9
20260502183003 56 12 1.0 3.0 0.00 0.53 0.53 99 1015.0
20260502182924 56 12 1.0 3.0 0.00 0.53 0.53 99 1015.0
20260502182703 56 13 1.0 3.0 0.00 0.53 0.53 99 1014.9
20260502182603 56 13 1.0 3.0 0.01 0.53 0.53 99 1014.9
20260502182503 56 14 1.0 2.0 0.01 0.53 0.53 99 1014.9
20260502182403 56 13 1.0 2.0 0.01 0.53 0.53 99 1014.9
20260502182304 56 12 1.0 2.0 0.01 0.53 0.53 99 1015.0
20260502182224 57 11 1.0 2.0 0.01 0.53 0.53 99 1014.9
20260502182103 57 11 1.0 2.0 0.01 0.53 0.53 99 1014.9
20260502182003 57 12 1.0 2.0 0.01 0.53 0.53 99 1014.9
20260502181903 57 12 1.0 2.0 0.01 0.53 0.53 99 1014.8
20260502181824 57 11 1.0 2.0 0.01 0.53 0.53 99 1015.0
20260502181724 57 11 1.0 2.0 0.02 0.53 0.53 99 1014.9
20260502181603 56 11 1.0 2.0 0.02 0.53 0.53 99 1014.9
20260502181503 56 11 1.0 2.0 0.02 0.53 0.53 99 1015.0
20260502181403 56 11 1.0 2.0 0.02 0.53 0.53 99 1014.8
20260502181303 56 12 1.0 2.0 0.02 0.53 0.53 99 1015.0
20260502181203 57 12 1.0 2.0 0.03 0.53 0.53 99 1014.9
20260502181103 57 12 1.0 2.0 0.03 0.53 0.53 99 1014.9
20260502181003 57 12 1.0 2.0 0.04 0.53 0.53 99 1014.9
20260502180903 57 12 1.0 2.0 0.04 0.53 0.53 99 1015.0
20260502180803 57 13 1.0 2.0 0.05 0.53 0.53 99 1015.1
20260502180703 56 14 1.0 2.0 0.05 0.53 0.53 99 1015.1
20260502180603 56 14 1.0 2.0 0.05 0.53 0.53 99 1015.0
20260502180503 56 15 1.0 2.0 0.06 0.53 0.53 99 1015.0
20260502180403 56 15 1.0 2.0 0.06 0.53 0.53 99 1015.1
20260502180303 56 15 1.0 2.0 0.07 0.53 0.53 99 1015.0
20260502180203 56 15 1.0 2.0 0.07 0.53 0.53 99 1015.2
20260502180124 57 16 1.0 2.0 0.08 0.53 0.53 99 1015.1
20260502170503 56 10 0.0 1.0 0.21 0.47 0.47 98 1015.7
20260502170403 56 10 0.0 1.0 0.21 0.47 0.47 98 1015.5
20260502170324 56 10 0.0 1.0 0.20 0.46 0.47 98 1015.5
20260502170224 56 10 0.0 1.0 0.20 0.46 0.46 98 1015.5
20260502164303 56 8 2.0 4.0 0.02 0.28 0.28 98 1015.1
20260502164203 56 5 2.0 4.0 0.02 0.28 0.28 98 1015.1
20260502164124 56 5 2.0 4.0 0.02 0.28 0.28 98 1015.1
20260502164003 56 8 2.0 4.0 0.02 0.28 0.28 98 1015.1
20260502163903 56 7 2.0 4.0 0.02 0.28 0.28 98 1015.0
20260502163803 56 7 2.0 4.0 0.02 0.28 0.28 98 1015.0
20260502163703 56 9 2.0 4.0 0.01 0.27 0.27 98 1014.9
20260502163603 56 11 2.0 4.0 0.01 0.27 0.27 98 1015.0
20260502163503 56 13 2.0 4.0 0.01 0.27 0.27 98 1015.0
20260502163403 56 12 2.0 4.0 0.01 0.27 0.27 98 1015.1
20260502163303 56 10 2.0 4.0 0.01 0.27 0.27 98 1014.9
20260502163203 56 10 1.0 4.0 0.01 0.27 0.27 98 1014.9
20260502163103 56 14 1.0 4.0 0.01 0.27 0.27 98 1015.0
20260502163024 56 13 1.0 4.0 0.01 0.27 0.27 98 1015.0
20260502162903 57 9 2.0 4.0 0.01 0.27 0.27 98 1015.0
20260502162803 57 10 1.0 4.0 0.01 0.27 0.27 98 1015.1
20260502162703 57 9 1.0 4.0 0.01 0.27 0.27 98 1015.1
20260502162603 57 6 1.0 4.0 0.01 0.27 0.27 98 1015.1
20260502162503 57 6 1.0 4.0 0.01 0.27 0.27 98 1015.1
20260502162403 57 6 2.0 4.0 0.00 0.26 0.26 98 1015.1
20260502162304 57 5 2.0 4.0 0.00 0.26 0.26 98 1015.1
20260502162203 57 5 2.0 4.0 0.01 0.26 0.26 98 1015.1
20260502162103 57 5 2.0 4.0 0.01 0.26 0.26 98 1015.0
20260502162024 57 5 2.0 4.0 0.01 0.26 0.26 98 1014.9
20260502161903 57 5 2.0 4.0 0.01 0.26 0.26 98 1015.0
20260502161803 57 6 2.0 4.0 0.01 0.26 0.26 98 1015.0
20260502161703 57 1 2.0 7.0 0.01 0.26 0.26 98 1015.0
20260502161603 58 1 3.0 7.0 0.01 0.26 0.26 98 1014.9
20260502161503 58 1 3.0 7.0 0.01 0.26 0.26 98 1015.2
20260502161403 58 359 3.0 7.0 0.01 0.26 0.26 98 1014.8
20260502161303 58 359 3.0 7.0 0.01 0.26 0.26 98 1014.9
20260502161224 58 360 3.0 7.0 0.01 0.26 0.26 98 1015.1
20260502161103 58 359 2.0 7.0 0.01 0.26 0.26 98 1014.9
20260502161024 58 359 2.0 7.0 0.01 0.26 0.26 98 1014.9
20260502160903 58 354 3.0 7.0 0.01 0.26 0.26 98 1015.1
20260502160803 58 356 3.0 7.0 0.01 0.26 0.26 98 1015.1
20260502160703 58 1 2.0 4.0 0.01 0.26 0.26 98 1015.0
20260502160603 58 1 2.0 4.0 0.01 0.26 0.26 98 1015.0
20260502160503 58 1 2.0 4.0 0.01 0.26 0.26 98 1014.9
20260502160403 58 1 2.0 4.0 0.01 0.26 0.26 98 1015.1
20260502160303 58 1 2.0 4.0 0.01 0.26 0.26 98 1015.1
20260502160203 58 1 2.0 4.0 0.01 0.26 0.26 98 1015.1
20260502152305 58 3 2.0 6.0 0.25 0.26 0.26 97 1015.2
20260502152203 58 3 2.0 6.0 0.24 0.25 0.25 97 1015.3
20260502152105 58 6 2.0 4.0 0.24 0.25 0.25 97 1015.4
20260502152025 58 6 2.0 4.0 0.24 0.25 0.25 97 1015.4
20260502151904 58 3 2.0 6.0 0.24 0.25 0.25 97 1015.2
20260502151825 58 3 2.0 6.0 0.24 0.25 0.25 97 1015.2
20260502151727 58 2 3.0 7.0 0.24 0.25 0.25 97 1015.3
20260502151624 59 5 3.0 7.0 0.24 0.25 0.25 97 1015.3
20260502151504 59 4 3.0 7.0 0.24 0.25 0.25 97 1015.4
20260502151403 58 1 3.0 7.0 0.24 0.25 0.25 97 1015.2
20260502151303 58 2 3.0 7.0 0.24 0.25 0.25 97 1015.2
20260502151203 58 2 3.0 7.0 0.24 0.25 0.25 96 1015.3
20260502151103 58 2 3.0 7.0 0.24 0.25 0.25 96 1015.3
20260502151003 58 2 3.0 7.0 0.24 0.25 0.25 96 1015.3
20260502150903 58 2 3.0 7.0 0.24 0.25 0.25 96 1015.3
20260502150803 58 1 3.0 7.0 0.24 0.25 0.25 96 1015.4
20260502150703 58 2 2.0 4.0 0.24 0.25 0.25 96 1015.3
20260502150603 58 2 2.0 4.0 0.24 0.25 0.25 96 1015.3
20260502150503 58 2 2.0 4.0 0.24 0.25 0.25 96 1015.3
20260502150403 58 5 2.0 4.0 0.24 0.25 0.25 95 1015.5
20260502150324 58 5 2.0 4.0 0.24 0.25 0.25 95 1015.5
20260502150204 58 5 2.0 4.0 0.24 0.25 0.25 95 1015.5
20260502150124 58 6 2.0 4.0 0.24 0.25 0.25 95 1015.6
20260502130703 64 326 3.0 7.0 0.00 0.01 0.01 78 1015.7
20260502130624 64 326 3.0 7.0 0.00 0.01 0.01 78 1015.7
20260502130503 64 324 2.0 6.0 0.00 0.01 0.01 78 1015.8
20260502130424 64 321 2.0 4.0 0.00 0.01 0.01 78 1015.8
20260502130303 64 326 2.0 4.0 0.00 0.01 0.01 77 1015.6
20260502130203 64 326 2.0 4.0 0.00 0.01 0.01 77 1015.6
20260502130124 64 331 2.0 4.0 0.00 0.01 0.01 77 1015.9
20260502123803 64 347 2.0 6.0 0.00 0.01 0.01 79 1015.8
20260502123703 64 346 3.0 6.0 0.00 0.01 0.01 80 1015.9
20260502123603 64 346 3.0 6.0 0.00 0.01 0.01 81 1015.8
20260502123503 63 345 3.0 6.0 0.00 0.01 0.01 81 1015.8
20260502123424 63 345 3.0 6.0 0.00 0.01 0.01 81 1016.0
20260502123303 63 344 3.0 6.0 0.00 0.01 0.01 81 1015.8
20260502123203 62 343 3.0 6.0 0.00 0.01 0.01 81 1015.8
20260502123103 62 343 3.0 6.0 0.00 0.01 0.01 82 1015.9
20260502123003 62 342 3.0 6.0 0.00 0.01 0.01 82 1015.9
20260502122924 62 342 3.0 6.0 0.00 0.01 0.01 82 1015.9
20260502122803 63 341 3.0 6.0 0.00 0.01 0.01 81 1015.9
20260502122703 63 341 3.0 6.0 0.00 0.01 0.01 81 1015.9
20260502122603 63 339 2.0 6.0 0.00 0.01 0.01 82 1016.0
20260502122503 63 338 2.0 6.0 0.00 0.01 0.01 82 1016.1
20260502122424 63 338 2.0 6.0 0.00 0.01 0.01 82 1015.9
20260502122324 63 337 2.0 6.0 0.00 0.01 0.01 82 1016.0
20260502122203 63 335 2.0 3.0 0.00 0.01 0.01 82 1016.0
20260502122103 63 335 2.0 3.0 0.00 0.01 0.01 82 1016.1
20260502122003 63 334 2.0 3.0 0.00 0.01 0.01 82 1016.1
20260502121903 63 333 2.0 3.0 0.00 0.01 0.01 82 1015.9
20260502121803 63 333 2.0 3.0 0.00 0.01 0.01 82 1016.0
20260502121724 63 334 2.0 4.0 0.00 0.01 0.01 81 1016.1
20260502121603 63 334 2.0 4.0 0.00 0.01 0.01 83 1016.0
20260502121503 63 333 2.0 4.0 0.00 0.01 0.01 83 1016.1
20260502121403 63 331 2.0 4.0 0.00 0.01 0.01 82 1016.0
20260502121303 63 329 2.0 4.0 0.00 0.01 0.01 82 1016.2
20260502121203 63 329 2.0 4.0 0.00 0.01 0.01 83 1016.1
20260502121103 63 328 2.0 4.0 0.00 0.01 0.01 83 1016.1
20260502121003 63 328 2.0 4.0 0.00 0.01 0.01 83 1016.1
20260502120904 63 324 2.0 4.0 0.00 0.01 0.01 83 1016.1
20260502120803 63 314 2.0 6.0 0.00 0.01 0.01 82 1016.0
20260502120703 63 314 2.0 6.0 0.00 0.01 0.01 82 1016.0
20260502120603 63 305 2.0 6.0 0.00 0.01 0.01 82 1016.3
20260502120524 63 293 2.0 6.0 0.00 0.01 0.01 81 1016.2
20260502120403 63 277 2.0 6.0 0.00 0.01 0.01 80 1016.1
20260502120303 64 250 2.0 6.0 0.00 0.01 0.01 80 1016.2
20260502120203 64 234 2.0 6.0 0.00 0.01 0.01 80 1016.3
20260502120125 64 235 2.0 6.0 0.00 0.01 0.01 79 1016.2
20260502115903 64 220 2.0 6.0 0.00 0.01 0.01 78 1016.2
20260502115803 64 214 2.0 6.0 0.00 0.01 0.01 76 1016.1
20260502115703 64 230 2.0 6.0 0.00 0.01 0.01 76 1016.2
20260502115603 64 222 2.0 6.0 0.00 0.01 0.01 75 1016.2
20260502115503 65 226 2.0 6.0 0.00 0.01 0.01 74 1016.1
20260502115403 65 248 2.0 6.0 0.00 0.01 0.01 73 1016.2
20260502115305 65 271 2.0 3.0 0.00 0.01 0.01 74 1016.1
20260502115202 65 267 1.0 3.0 0.00 0.01 0.01 74 1016.1
20260502115103 65 267 1.0 3.0 0.00 0.01 0.01 74 1016.1
20260502115003 65 265 1.0 3.0 0.00 0.01 0.01 73 1016.3
20260502114924 65 261 1.0 3.0 0.00 0.01 0.01 73 1016.2
20260502114803 65 257 1.0 3.0 0.00 0.01 0.01 72 1016.2
20260502114702 65 271 1.0 4.0 0.00 0.01 0.01 74 1016.2
20260502114524 65 261 2.0 4.0 0.00 0.01 0.01 74 1016.4
20260502114424 65 247 2.0 4.0 0.00 0.01 0.01 74 1016.4
20260502114324 65 220 2.0 4.0 0.00 0.01 0.01 74 1016.3
20260502114203 65 178 2.0 4.0 0.00 0.01 0.01 74 1016.1
20260502114103 65 151 2.0 4.0 0.00 0.01 0.01 76 1016.4
20260502114024 64 142 2.0 4.0 0.00 0.01 0.01 77 1016.3
20260502113902 64 137 2.0 4.0 0.00 0.01 0.01 76 1016.3
20260502113803 64 124 2.0 4.0 0.00 0.01 0.01 75 1016.2
20260502113703 65 121 2.0 3.0 0.00 0.01 0.01 76 1016.4
20260502113603 64 118 2.0 3.0 0.00 0.01 0.01 76 1016.4
20260502113524 64 118 2.0 3.0 0.00 0.01 0.01 76 1016.4
20260502113403 64 124 2.0 3.0 0.00 0.01 0.01 77 1016.3
20260502113303 64 129 2.0 3.0 0.00 0.01 0.01 77 1016.2
20260502113203 64 148 2.0 4.0 0.00 0.01 0.01 76 1016.2
20260502113102 64 163 2.0 6.0 0.00 0.01 0.01 75 1016.3
20260502113003 64 162 2.0 6.0 0.00 0.01 0.01 75 1016.3
20260502112902 64 156 2.0 6.0 0.00 0.01 0.01 74 1016.3
20260502112803 64 145 2.0 6.0 0.00 0.01 0.01 74 1016.3
20260502112703 64 150 2.0 6.0 0.00 0.01 0.01 75 1016.4
20260502112624 64 146 2.0 6.0 0.00 0.01 0.01 74 1016.3
20260502112503 64 141 2.0 6.0 0.00 0.01 0.01 73 1016.1
20260502112403 64 125 2.0 6.0 0.00 0.01 0.01 72 1016.3
20260502112305 64 110 2.0 6.0 0.00 0.01 0.01 73 1016.2
20260502112203 64 98 2.0 6.0 0.00 0.01 0.01 73 1016.2
20260502112102 64 83 2.0 3.0 0.00 0.01 0.01 75 1016.3
20260502112003 64 86 2.0 3.0 0.00 0.01 0.01 75 1016.3
20260502111903 64 86 2.0 3.0 0.00 0.01 0.01 75 1016.3
20260502111824 64 86 2.0 6.0 0.00 0.01 0.01 74 1016.4
20260502111702 64 86 2.0 6.0 0.00 0.01 0.01 75 1016.1
20260502111603 64 86 2.0 6.0 0.00 0.01 0.01 74 1016.4
20260502111524 64 86 2.0 6.0 0.00 0.01 0.01 75 1016.3
20260502111403 64 86 2.0 6.0 0.00 0.01 0.01 75 1016.4
20260502111303 64 85 2.0 6.0 0.00 0.01 0.01 75 1016.4
20260502111203 64 85 2.0 6.0 0.00 0.01 0.01 75 1016.4
20260502111103 64 85 2.0 6.0 0.00 0.01 0.01 74 1016.3
20260502111003 64 85 2.0 6.0 0.00 0.01 0.01 73 1016.4
20260502110902 64 85 2.0 6.0 0.00 0.01 0.01 73 1016.3
20260502110803 64 84 2.0 4.0 0.00 0.01 0.01 74 1016.3
20260502110703 64 84 2.0 4.0 0.00 0.01 0.01 73 1016.3
20260502110603 64 84 2.0 4.0 0.00 0.01 0.01 76 1016.4
20260502110502 64 84 2.0 4.0 0.00 0.01 0.01 76 1016.4
20260502110403 64 84 2.0 4.0 0.00 0.01 0.01 75 1016.3
20260502110303 64 84 2.0 4.0 0.00 0.01 0.01 75 1016.4
20260502110202 64 84 2.0 3.0 0.00 0.01 0.01 73 1016.4
20260502110003 64 82 2.0 3.0 0.00 0.01 0.01 72 1016.4
20260502105924 64 82 2.0 3.0 0.00 0.01 0.01 72 1016.4
20260502105802 64 81 2.0 3.0 0.00 0.01 0.01 74 1016.4
20260502105703 64 80 2.0 3.0 0.00 0.01 0.01 74 1016.5
20260502105603 64 80 2.0 4.0 0.00 0.01 0.01 73 1016.4
20260502105503 64 80 2.0 6.0 0.00 0.01 0.01 73 1016.2
20260502105403 64 80 2.0 6.0 0.00 0.01 0.01 74 1016.5
20260502105324 65 79 2.0 6.0 0.00 0.01 0.01 72 1016.6
20260502105203 65 77 2.0 6.0 0.00 0.01 0.01 74 1016.5
20260502105103 65 76 2.0 6.0 0.00 0.01 0.01 74 1016.3
20260502105003 65 75 2.0 6.0 0.00 0.01 0.01 75 1016.3
20260502104903 65 75 2.0 6.0 0.00 0.01 0.01 77 1016.6
20260502104824 65 75 2.0 6.0 0.00 0.01 0.01 77 1016.6
20260502104724 64 74 2.0 6.0 0.00 0.01 0.01 77 1016.5
20260502104603 64 74 2.0 6.0 0.00 0.01 0.01 78 1016.3
20260502104503 64 72 2.0 6.0 0.00 0.01 0.01 78 1016.5
20260502104403 65 68 1.0 4.0 0.00 0.01 0.01 77 1016.6
20260502104324 65 69 2.0 4.0 0.00 0.01 0.01 76 1016.5
20260502104203 64 67 1.0 3.0 0.00 0.01 0.01 76 1016.5
20260502104103 64 70 2.0 4.0 0.00 0.01 0.01 77 1016.5
20260502104024 64 70 1.0 4.0 0.00 0.01 0.01 77 1016.6
20260502103924 64 70 1.0 4.0 0.00 0.01 0.01 77 1016.6
20260502103803 64 73 2.0 4.0 0.00 0.01 0.01 78 1016.4
20260502103703 64 73 2.0 4.0 0.00 0.01 0.01 78 1016.6
20260502103603 64 72 1.0 4.0 0.00 0.01 0.01 77 1016.5
20260502103503 64 73 1.0 4.0 0.00 0.01 0.01 76 1016.6
20260502103402 65 73 1.0 4.0 0.00 0.01 0.01 78 1016.5
20260502103302 64 70 1.0 4.0 0.00 0.01 0.01 77 1016.5
20260502103203 64 70 1.0 4.0 0.00 0.01 0.01 78 1016.7
20260502103103 64 66 1.0 3.0 0.00 0.01 0.01 77 1016.5
20260502103003 64 71 1.0 3.0 0.00 0.01 0.01 76 1016.7
20260502102924 64 71 1.0 3.0 0.00 0.01 0.01 76 1016.7
20260502102803 64 72 1.0 4.0 0.00 0.01 0.01 79 1016.6
20260502102703 64 71 1.0 4.0 0.00 0.01 0.01 79 1016.8
20260502102624 64 71 1.0 4.0 0.00 0.01 0.01 79 1016.8
20260502102503 64 73 1.0 4.0 0.00 0.01 0.01 79 1016.6
20260502102402 63 73 1.0 4.0 0.00 0.01 0.01 79 1016.8
20260502102324 63 73 1.0 4.0 0.00 0.01 0.01 79 1016.7
20260502102203 63 74 1.0 4.0 0.00 0.01 0.01 79 1016.8
20260502102103 63 75 1.0 4.0 0.00 0.01 0.01 78 1016.6
20260502102003 65 75 1.0 4.0 0.00 0.01 0.01 76 1016.7
20260502101903 65 72 1.0 4.0 0.00 0.01 0.01 76 1016.9
20260502101803 66 58 0.0 2.0 0.00 0.01 0.01 76 1017.0
20260502101603 66 54 0.0 1.0 0.00 0.01 0.01 78 1016.9
20260502101503 66 54 0.0 2.0 0.00 0.01 0.01 79 1016.7
20260502101403 66 54 0.0 2.0 0.00 0.01 0.01 79 1016.8
20260502101324 66 54 0.0 2.0 0.00 0.01 0.01 79 1016.8
20260502101203 66 54 0.0 2.0 0.00 0.01 0.01 79 1016.7
20260502101124 66 54 0.0 2.0 0.00 0.01 0.01 79 1016.7
20260502101003 65 57 1.0 2.0 0.00 0.01 0.01 79 1016.9
20260502100903 64 57 1.0 2.0 0.00 0.01 0.01 79 1016.8
20260502100803 64 57 1.0 2.0 0.00 0.01 0.01 78 1016.9
20260502100724 64 57 1.0 2.0 0.00 0.01 0.01 78 1016.9
20260502100603 64 59 1.0 2.0 0.00 0.01 0.01 79 1016.8
20260502100503 64 59 1.0 2.0 0.00 0.01 0.01 79 1016.9
20260502100403 64 68 1.0 3.0 0.00 0.01 0.01 79 1016.9
20260502100303 64 67 1.0 3.0 0.00 0.01 0.01 79 1017.0
20260502100224 64 72 1.0 4.0 0.00 0.01 0.01 80 1017.1
20260502091503 57 52 0.0 2.0 0.01 0.01 0.01 92 1017.2
20260502091424 57 52 0.0 2.0 0.01 0.01 0.01 92 1017.2
20260502091303 57 56 0.0 2.0 0.01 0.01 0.01 93 1017.2
20260502091203 57 56 0.0 2.0 0.01 0.01 0.01 93 1017.1
20260502091103 57 56 0.0 2.0 0.01 0.01 0.01 93 1017.1
20260502091003 57 56 0.0 2.0 0.01 0.01 0.01 94 1017.1
20260502090903 57 58 0.0 2.0 0.01 0.01 0.01 94 1017.1
20260502090803 57 58 0.0 2.0 0.01 0.01 0.01 94 1017.1
20260502090703 56 58 0.0 2.0 0.01 0.01 0.01 95 1017.2
20260502090603 56 57 0.0 2.0 0.01 0.01 0.01 95 1017.1
20260502090503 57 64 1.0 2.0 0.01 0.01 0.01 95 1017.2
20260502090403 57 64 1.0 2.0 0.01 0.01 0.01 95 1017.2
20260502090303 57 64 0.0 2.0 0.01 0.01 0.01 95 1017.2
20260502090203 57 62 0.0 2.0 0.01 0.01 0.01 96 1017.3
20260502080103 54 51 0.0 1.0 0.00 0.00 0.00 98 1017.1
20260502071503 52 56 2.0 3.0 0.00 0.00 0.00 98 1017.2
20260502071424 52 56 2.0 3.0 0.00 0.00 0.00 98 1017.3
20260502071324 52 55 2.0 3.0 0.00 0.00 0.00 98 1017.3
20260502071203 52 55 2.0 3.0 0.00 0.00 0.00 99 1017.3
20260502071124 52 54 2.0 3.0 0.00 0.00 0.00 98 1017.2
20260502071003 52 53 1.0 3.0 0.00 0.00 0.00 99 1017.3
20260502070903 52 53 1.0 3.0 0.00 0.00 0.00 99 1017.2
20260502070803 52 53 1.0 3.0 0.00 0.00 0.00 98 1017.1
20260502070703 52 53 1.0 3.0 0.00 0.00 0.00 98 1017.1
20260502070624 52 52 1.0 2.0 0.00 0.00 0.00 99 1017.2
20260502070503 52 52 1.0 2.0 0.00 0.00 0.00 98 1017.3
20260502070403 52 51 1.0 2.0 0.00 0.00 0.00 99 1017.2
20260502070303 52 51 1.0 2.0 0.00 0.00 0.00 99 1017.2
20260502070203 52 51 1.0 2.0 0.00 0.00 0.00 99 1017.1
20260502070003 52 50 1.0 2.0 0.00 0.00 0.00 99 1017.0
20260502065903 52 49 1.0 1.0 0.00 0.00 0.00 99 1017.4
20260502065824 52 49 1.0 1.0 0.00 0.00 0.00 99 1017.4
20260502065703 52 49 0.0 1.0 0.00 0.00 0.00 99 1017.2
20260502065603 52 48 0.0 1.0 0.00 0.00 0.00 99 1017.3
20260502065524 52 48 0.0 1.0 0.00 0.00 0.00 99 1017.3
20260502065403 52 48 0.0 1.0 0.00 0.00 0.00 98 1017.0
20260502065305 52 0 0.0 0.0 0.00 0.00 0.00 98 1017.1
20260502065203 52 0 0.0 0.0 0.00 0.00 0.00 99 1017.0
20260502065103 52 0 0.0 0.0 0.00 0.00 0.00 99 1017.3
20260502065003 52 0 0.0 0.0 0.00 0.00 0.00 99 1017.1
20260502064903 52 0 0.0 0.0 0.00 0.00 0.00 99 1017.3
20260502064803 52 0 0.0 0.0 0.00 0.00 0.00 98 1017.1
20260502064703 52 0 0.0 0.0 0.00 0.00 0.00 99 1017.2
20260502064603 52 0 0.0 0.0 0.00 0.00 0.00 99 1017.3
20260502064503 52 0 0.0 0.0 0.00 0.00 0.00 99 1017.1
20260502064403 52 0 0.0 0.0 0.00 0.00 0.00 99 1017.2
20260502064303 52 0 0.0 0.0 0.00 0.00 0.00 99 1017.2
20260502064203 52 0 0.0 0.0 0.00 0.00 0.00 98 1017.2
20260502064103 52 0 0.0 0.0 0.00 0.00 0.00 99 1017.2
20260502064003 52 0 0.0 0.0 0.00 0.00 0.00 98 1017.3
20260502063903 52 0 0.0 0.0 0.00 0.00 0.00 98 1017.1
20260502063803 52 0 0.0 0.0 0.00 0.00 0.00 98 1017.1
20260502063703 52 0 0.0 0.0 0.00 0.00 0.00 99 1017.3
20260502063603 51 0 0.0 0.0 0.00 0.00 0.00 98 1017.3
20260502063503 51 0 0.0 0.0 0.00 0.00 0.00 98 1017.1
20260502063403 51 0 0.0 0.0 0.00 0.00 0.00 98 1017.1
20260502063303 51 48 0.0 1.0 0.00 0.00 0.00 98 1017.2
20260502063203 51 48 0.0 1.0 0.00 0.00 0.00 98 1017.2
20260502063124 51 48 0.0 1.0 0.00 0.00 0.00 98 1017.2
20260502063003 51 48 0.0 1.0 0.00 0.00 0.00 98 1017.2
20260502062904 51 48 0.0 1.0 0.00 0.00 0.00 98 1017.2
20260502062803 51 48 0.0 1.0 0.00 0.00 0.00 98 1017.2
20260502062703 51 48 0.0 1.0 0.00 0.00 0.00 98 1017.2
20260502062603 51 49 0.0 1.0 0.00 0.00 0.00 98 1017.3
20260502062503 51 49 0.0 1.0 0.00 0.00 0.00 98 1017.3
20260502062403 51 49 0.0 1.0 0.00 0.00 0.00 98 1017.3
20260502062306 51 48 0.0 1.0 0.00 0.00 0.00 98 1017.4
20260502062203 51 48 0.0 1.0 0.00 0.00 0.00 98 1017.3
20260502062103 51 49 1.0 1.0 0.00 0.00 0.00 98 1017.4
20260502062003 51 50 1.0 2.0 0.00 0.00 0.00 98 1017.4
20260502061903 51 50 1.0 2.0 0.00 0.00 0.00 98 1017.2
20260502061803 51 50 1.0 2.0 0.00 0.00 0.00 98 1017.2
20260502061703 51 50 1.0 2.0 0.00 0.00 0.00 98 1017.3
20260502061603 51 49 1.0 2.0 0.00 0.00 0.00 98 1017.3
20260502061503 51 49 1.0 2.0 0.00 0.00 0.00 98 1017.3
20260502061403 51 48 1.0 2.0 0.00 0.00 0.00 98 1017.3
20260502061303 51 48 1.0 2.0 0.00 0.00 0.00 98 1017.1
20260502061224 51 48 1.0 2.0 0.00 0.00 0.00 98 1017.1
20260502061103 51 48 1.0 2.0 0.00 0.00 0.00 98 1017.3
20260502061003 51 47 1.0 2.0 0.00 0.00 0.00 98 1017.2
20260502060924 50 45 1.0 2.0 0.00 0.00 0.00 98 1017.3
20260502060804 50 42 1.0 1.0 0.00 0.00 0.00 98 1017.2
20260502060703 50 42 1.0 1.0 0.00 0.00 0.00 98 1017.2
20260502060603 50 41 0.0 1.0 0.00 0.00 0.00 98 1017.2
20260502060503 50 41 0.0 1.0 0.00 0.00 0.00 98 1017.2
20260502060424 50 41 0.0 1.0 0.00 0.00 0.00 98 1017.1
20260502060303 50 40 0.0 1.0 0.00 0.00 0.00 98 1017.0
20260502060203 50 40 0.0 1.0 0.00 0.00 0.00 98 1017.3
20260502060003 50 39 0.0 1.0 0.00 0.00 0.00 98 1017.2
20260502055903 50 39 0.0 1.0 0.00 0.00 0.00 98 1017.1
20260502055803 50 39 0.0 1.0 0.00 0.00 0.00 98 1017.1
20260502055724 50 39 0.0 1.0 0.00 0.00 0.00 98 1017.1
20260502055603 50 39 0.0 1.0 0.00 0.00 0.00 98 1017.0
20260502055503 50 39 0.0 1.0 0.00 0.00 0.00 98 1017.0
20260502055403 50 39 0.0 1.0 0.00 0.00 0.00 98 1017.0
20260502055305 50 39 0.0 1.0 0.00 0.00 0.00 98 1017.1
20260502055224 50 39 0.0 1.0 0.00 0.00 0.00 98 1017.0
20260502055124 50 39 0.0 1.0 0.00 0.00 0.00 98 1017.2
20260502055003 50 39 0.0 1.0 0.00 0.00 0.00 98 1017.0
20260502054903 50 39 0.0 1.0 0.00 0.00 0.00 98 1017.1
20260502054803 50 39 0.0 1.0 0.00 0.00 0.00 98 1017.3
20260502054704 50 39 0.0 1.0 0.00 0.00 0.00 98 1017.1
20260502054603 50 39 0.0 1.0 0.00 0.00 0.00 98 1017.2
20260502054524 50 39 0.0 1.0 0.00 0.00 0.00 98 1017.2
20260502054403 50 0 0.0 0.0 0.00 0.00 0.00 98 1016.9
20260502054324 50 0 0.0 0.0 0.00 0.00 0.00 98 1016.9
20260502054203 50 0 0.0 0.0 0.00 0.00 0.00 98 1017.2
20260502054103 50 38 0.0 1.0 0.00 0.00 0.00 98 1017.1
20260502054003 50 38 0.0 1.0 0.00 0.00 0.00 98 1017.0
20260502053903 50 39 0.0 1.0 0.00 0.00 0.00 98 1017.1
20260502053803 50 39 0.0 1.0 0.00 0.00 0.00 98 1017.2
20260502053703 50 40 0.0 1.0 0.00 0.00 0.00 98 1017.0
20260502053603 50 41 1.0 1.0 0.00 0.00 0.00 98 1017.2
20260502053524 50 41 1.0 1.0 0.00 0.00 0.00 98 1016.9
20260502053404 50 41 1.0 1.0 0.00 0.00 0.00 98 1017.0
20260502053303 50 41 1.0 1.0 0.00 0.00 0.00 98 1017.0
20260502053203 49 41 1.0 1.0 0.00 0.00 0.00 98 1017.1
20260502053103 49 42 0.0 1.0 0.00 0.00 0.00 98 1017.0
20260502053003 49 42 0.0 1.0 0.00 0.00 0.00 98 1017.0
20260502052903 49 43 0.0 1.0 0.00 0.00 0.00 98 1016.9
20260502052824 49 43 0.0 1.0 0.00 0.00 0.00 98 1016.9
20260502052703 49 45 0.0 1.0 0.00 0.00 0.00 98 1017.1
20260502052603 49 45 0.0 1.0 0.00 0.00 0.00 98 1017.0
20260502052503 49 0 0.0 0.0 0.00 0.00 0.00 98 1017.2
20260502052403 49 0 0.0 0.0 0.00 0.00 0.00 98 1017.1
20260502052306 49 0 0.0 0.0 0.00 0.00 0.00 98 1017.0
20260502052203 49 0 0.0 0.0 0.00 0.00 0.00 98 1017.2
20260502052103 49 0 0.0 0.0 0.00 0.00 0.00 98 1017.1
20260502052003 49 0 0.0 0.0 0.00 0.00 0.00 98 1017.1
20260502051924 49 0 0.0 0.0 0.00 0.00 0.00 98 1017.1
20260502051803 49 0 0.0 0.0 0.00 0.00 0.00 98 1017.0
20260502051703 49 0 0.0 0.0 0.00 0.00 0.00 98 1017.0
20260502051603 49 0 0.0 0.0 0.00 0.00 0.00 98 1017.1
20260502051524 49 0 0.0 0.0 0.00 0.00 0.00 98 1017.1
20260502051403 50 0 0.0 0.0 0.00 0.00 0.00 98 1017.1
20260502051303 50 0 0.0 0.0 0.00 0.00 0.00 98 1017.1
20260502051203 50 0 0.0 0.0 0.00 0.00 0.00 98 1017.1
20260502051103 50 0 0.0 0.0 0.00 0.00 0.00 98 1017.0
20260502051003 50 0 0.0 0.0 0.00 0.00 0.00 98 1017.1
20260502050903 50 0 0.0 0.0 0.00 0.00 0.00 98 1017.1
20260502050803 50 0 0.0 0.0 0.00 0.00 0.00 98 1016.9
20260502050703 50 0 0.0 0.0 0.00 0.00 0.00 98 1016.9
20260502050603 50 0 0.0 0.0 0.00 0.00 0.00 98 1017.0
20260502050503 50 0 0.0 0.0 0.00 0.00 0.00 98 1016.9
20260502050403 50 0 0.0 0.0 0.00 0.00 0.00 98 1017.0
20260502050303 50 0 0.0 0.0 0.00 0.00 0.00 98 1017.0
20260502050203 50 0 0.0 0.0 0.00 0.00 0.00 98 1017.1
20260502050124 50 0 0.0 0.0 0.00 0.00 0.00 98 1016.9
20260502050003 50 0 0.0 0.0 0.00 0.00 0.00 98 1016.8
20260502045903 50 0 0.0 0.0 0.00 0.00 0.00 98 1016.8
20260502045803 50 0 0.0 0.0 0.00 0.00 0.00 98 1016.8
20260502045703 50 0 0.0 0.0 0.00 0.00 0.00 98 1016.8
20260502045603 51 0 0.0 0.0 0.00 0.00 0.00 98 1016.9
20260502045503 51 0 0.0 0.0 0.00 0.00 0.00 98 1016.7
20260502045403 51 0 0.0 0.0 0.00 0.00 0.00 98 1016.7
20260502045305 51 0 0.0 0.0 0.00 0.00 0.00 98 1016.8
20260502045203 51 0 0.0 0.0 0.00 0.00 0.00 98 1016.6
20260502045104 51 0 0.0 0.0 0.00 0.00 0.00 98 1016.8
20260502045024 51 0 0.0 0.0 0.00 0.00 0.00 98 1016.8
20260502044903 51 0 0.0 0.0 0.00 0.00 0.00 98 1016.6
20260502044824 51 0 0.0 0.0 0.00 0.00 0.00 98 1016.6
20260502044703 51 0 0.0 0.0 0.00 0.00 0.00 98 1016.7
20260502044603 51 0 0.0 0.0 0.00 0.00 0.00 98 1016.6
20260502044503 51 0 0.0 0.0 0.00 0.00 0.00 98 1016.9
20260502044403 51 0 0.0 0.0 0.00 0.00 0.00 98 1016.8
20260502044303 51 0 0.0 0.0 0.00 0.00 0.00 98 1016.6
20260502044203 51 0 0.0 0.0 0.00 0.00 0.00 98 1016.7
20260502044103 51 0 0.0 0.0 0.00 0.00 0.00 98 1016.8
20260502044003 51 0 0.0 0.0 0.00 0.00 0.00 98 1016.6
20260502043903 51 0 0.0 0.0 0.00 0.00 0.00 98 1016.6
20260502043803 51 0 0.0 0.0 0.00 0.00 0.00 98 1016.6
20260502043703 51 0 0.0 0.0 0.00 0.00 0.00 98 1016.8
20260502043603 51 0 0.0 0.0 0.00 0.00 0.00 98 1016.7
20260502043503 51 0 0.0 0.0 0.00 0.00 0.00 98 1016.8
20260502043403 51 0 0.0 0.0 0.00 0.00 0.00 98 1016.6
20260502043303 51 0 0.0 0.0 0.00 0.00 0.00 98 1016.6
20260502043203 51 0 0.0 0.0 0.00 0.00 0.00 98 1016.8
20260502043103 51 0 0.0 0.0 0.00 0.00 0.00 98 1016.8
20260502043003 51 0 0.0 0.0 0.00 0.00 0.00 98 1016.7
20260502042903 51 0 0.0 0.0 0.00 0.00 0.00 98 1016.7
20260502042803 51 0 0.0 0.0 0.00 0.00 0.00 98 1016.6
20260502042703 51 0 0.0 0.0 0.00 0.00 0.00 98 1016.6
20260502042603 51 0 0.0 0.0 0.00 0.00 0.00 98 1016.7
20260502042503 51 0 0.0 0.0 0.00 0.00 0.00 98 1016.7
20260502042403 51 0 0.0 0.0 0.00 0.00 0.00 98 1016.7
20260502042305 51 0 0.0 0.0 0.00 0.00 0.00 98 1016.6
20260502042203 51 0 0.0 0.0 0.00 0.00 0.00 98 1016.7
20260502042103 51 0 0.0 0.0 0.00 0.00 0.00 98 1016.5
20260502042003 51 0 0.0 0.0 0.00 0.00 0.00 98 1016.8
20260502041903 51 0 0.0 0.0 0.00 0.00 0.00 98 1016.7
20260502041803 51 0 0.0 0.0 0.00 0.00 0.00 98 1016.6
20260502041703 51 0 0.0 0.0 0.00 0.00 0.00 98 1016.7
20260502041603 51 0 0.0 0.0 0.00 0.00 0.00 98 1016.9
20260502041503 51 0 0.0 0.0 0.00 0.00 0.00 98 1016.7
20260502041404 51 0 0.0 0.0 0.00 0.00 0.00 98 1016.7
20260502041303 51 0 0.0 0.0 0.00 0.00 0.00 98 1016.7
20260502041203 51 0 0.0 0.0 0.00 0.00 0.00 98 1016.8
20260502041103 51 0 0.0 0.0 0.00 0.00 0.00 98 1016.9
20260502041003 51 0 0.0 0.0 0.00 0.00 0.00 98 1016.8
20260502040903 51 0 0.0 0.0 0.00 0.00 0.00 98 1016.8
20260502040803 51 0 0.0 0.0 0.00 0.00 0.00 98 1016.8
20260502040703 51 0 0.0 0.0 0.00 0.00 0.00 98 1016.7
20260502040603 51 0 0.0 0.0 0.00 0.00 0.00 98 1017.0
20260502040503 51 0 0.0 0.0 0.00 0.00 0.00 97 1016.9
20260502040403 51 0 0.0 0.0 0.00 0.00 0.00 97 1017.0
20260502040303 51 0 0.0 0.0 0.00 0.00 0.00 97 1016.9
20260502040224 51 0 0.0 0.0 0.00 0.00 0.00 97 1016.8
20260502040124 51 0 0.0 0.0 0.00 0.00 0.00 97 1016.8
20260502040003 51 0 0.0 0.0 0.00 0.00 0.00 97 1016.8
20260502035903 51 0 0.0 0.0 0.00 0.00 0.00 97 1016.8
20260502035803 51 0 0.0 0.0 0.00 0.00 0.00 97 1016.9
20260502035703 51 0 0.0 0.0 0.00 0.00 0.00 97 1016.9
20260502035603 51 0 0.0 0.0 0.00 0.00 0.00 97 1016.9
20260502035503 51 0 0.0 0.0 0.00 0.00 0.00 97 1017.1
20260502035403 51 0 0.0 0.0 0.00 0.00 0.00 97 1017.0
20260502035306 51 0 0.0 0.0 0.00 0.00 0.00 97 1017.0
20260502035224 51 0 0.0 0.0 0.00 0.00 0.00 97 1016.7
20260502035103 51 0 0.0 0.0 0.00 0.00 0.00 97 1016.9
20260502035003 51 0 0.0 0.0 0.00 0.00 0.00 97 1016.8
20260502034903 51 0 0.0 0.0 0.00 0.00 0.00 97 1016.9
20260502034803 51 54 0.0 1.0 0.00 0.00 0.00 97 1016.8
20260502034703 51 54 0.0 1.0 0.00 0.00 0.00 97 1016.8
20260502034624 51 54 0.0 1.0 0.00 0.00 0.00 97 1016.8
20260502034503 51 53 0.0 1.0 0.00 0.00 0.00 97 1016.9
20260502034403 51 53 0.0 1.0 0.00 0.00 0.00 97 1016.8
20260502034324 51 53 0.0 1.0 0.00 0.00 0.00 97 1016.8
20260502034203 51 52 0.0 2.0 0.00 0.00 0.00 97 1017.0
20260502034103 51 53 1.0 2.0 0.00 0.00 0.00 97 1016.8
20260502034003 51 53 1.0 2.0 0.00 0.00 0.00 97 1016.9
20260502033903 51 53 1.0 2.0 0.00 0.00 0.00 97 1017.0
20260502033803 51 53 1.0 2.0 0.00 0.00 0.00 97 1017.0
20260502033703 51 53 1.0 2.0 0.00 0.00 0.00 97 1017.0
20260502033603 51 53 1.0 2.0 0.00 0.00 0.00 97 1017.2
20260502033503 51 53 1.0 2.0 0.00 0.00 0.00 97 1016.9
20260502033403 51 53 0.0 2.0 0.00 0.00 0.00 97 1017.0
20260502033303 51 53 0.0 2.0 0.00 0.00 0.00 97 1017.2
20260502033203 51 54 0.0 2.0 0.00 0.00 0.00 97 1017.1
20260502033103 51 52 0.0 1.0 0.00 0.00 0.00 97 1017.0
20260502033003 51 52 0.0 1.0 0.00 0.00 0.00 97 1017.2
20260502032924 51 52 0.0 1.0 0.00 0.00 0.00 97 1017.1
20260502032803 51 52 0.0 1.0 0.00 0.00 0.00 97 1017.0
20260502032703 51 0 0.0 0.0 0.00 0.00 0.00 97 1017.0
20260502032603 51 52 0.0 1.0 0.00 0.00 0.00 97 1017.0
20260502032524 51 52 0.0 1.0 0.00 0.00 0.00 97 1017.0
20260502032424 51 52 0.0 1.0 0.00 0.00 0.00 97 1017.1
20260502032305 51 52 0.0 1.0 0.00 0.00 0.00 97 1017.0
20260502032203 51 52 0.0 1.0 0.00 0.00 0.00 97 1017.0
20260502032103 51 52 0.0 1.0 0.00 0.00 0.00 97 1017.0
20260502032003 51 52 0.0 1.0 0.00 0.00 0.00 97 1017.0
20260502031903 51 52 0.0 1.0 0.00 0.00 0.00 97 1017.0
20260502031803 52 52 0.0 1.0 0.00 0.00 0.00 97 1017.0
20260502031703 52 52 0.0 1.0 0.00 0.00 0.00 97 1017.0
20260502031624 52 52 0.0 1.0 0.00 0.00 0.00 97 1017.1
20260502031503 51 52 0.0 1.0 0.00 0.00 0.00 97 1017.0
20260502031403 51 52 0.0 1.0 0.00 0.00 0.00 97 1017.0
20260502031303 51 52 0.0 1.0 0.00 0.00 0.00 97 1016.9
20260502031203 51 52 0.0 1.0 0.00 0.00 0.00 97 1017.1
20260502031104 51 52 0.0 1.0 0.00 0.00 0.00 97 1017.1
20260502031003 51 0 0.0 0.0 0.00 0.00 0.00 97 1017.1
20260502030903 51 0 0.0 0.0 0.00 0.00 0.00 97 1017.0
20260502030803 51 0 0.0 0.0 0.00 0.00 0.00 97 1017.1
20260502030703 51 0 0.0 0.0 0.00 0.00 0.00 97 1017.0
20260502030603 51 0 0.0 0.0 0.00 0.00 0.00 97 1017.0
20260502030524 51 0 0.0 0.0 0.00 0.00 0.00 97 1017.1
20260502030403 51 0 0.0 0.0 0.00 0.00 0.00 97 1017.1
20260502030303 51 0 0.0 0.0 0.00 0.00 0.00 97 1017.2
20260502030203 51 0 0.0 0.0 0.00 0.00 0.00 97 1017.0
20260502030003 51 0 0.0 0.0 0.00 0.00 0.00 97 1017.1
20260502025903 52 0 0.0 0.0 0.00 0.00 0.00 97 1017.1
20260502025803 52 0 0.0 0.0 0.00 0.00 0.00 97 1017.0
20260502025703 52 0 0.0 0.0 0.00 0.00 0.00 97 1017.1
20260502025624 52 0 0.0 0.0 0.00 0.00 0.00 97 1017.1
20260502025503 52 0 0.0 0.0 0.00 0.00 0.00 97 1017.2
20260502025403 52 0 0.0 0.0 0.00 0.00 0.00 97 1017.2
20260502025306 52 0 0.0 0.0 0.00 0.00 0.00 97 1017.3
20260502025203 51 0 0.0 0.0 0.00 0.00 0.00 97 1017.2
20260502025103 51 0 0.0 0.0 0.00 0.00 0.00 97 1017.2
20260502025003 51 0 0.0 0.0 0.00 0.00 0.00 97 1017.3
20260502024903 51 0 0.0 0.0 0.00 0.00 0.00 97 1017.2
20260502024803 51 0 0.0 0.0 0.00 0.00 0.00 97 1017.4
20260502024703 51 0 0.0 0.0 0.00 0.00 0.00 97 1017.4
20260502024603 51 52 0.0 1.0 0.00 0.00 0.00 97 1017.3
20260502024503 51 52 0.0 1.0 0.00 0.00 0.00 97 1017.3
20260502024403 51 52 0.0 1.0 0.00 0.00 0.00 97 1017.3
20260502024324 51 52 0.0 1.0 0.00 0.00 0.00 97 1017.3
20260502024203 52 52 0.0 1.0 0.00 0.00 0.00 97 1017.3
20260502024103 52 52 0.0 1.0 0.00 0.00 0.00 97 1017.3
20260502024024 52 52 0.0 1.0 0.00 0.00 0.00 97 1017.3
20260502023924 52 52 0.0 1.0 0.00 0.00 0.00 97 1017.3
20260502023804 52 52 0.0 1.0 0.00 0.00 0.00 97 1017.4
20260502023703 52 52 0.0 1.0 0.00 0.00 0.00 97 1017.2
20260502023603 52 52 0.0 1.0 0.00 0.00 0.00 97 1017.1
20260502023503 51 52 0.0 1.0 0.00 0.00 0.00 97 1017.3
20260502023403 51 52 0.0 1.0 0.00 0.00 0.00 97 1017.3
20260502023303 51 0 0.0 0.0 0.00 0.00 0.00 97 1017.3
20260502023203 51 53 0.0 1.0 0.00 0.00 0.00 96 1017.5
20260502023103 51 53 0.0 1.0 0.00 0.00 0.00 96 1017.3
20260502023003 51 53 0.0 1.0 0.00 0.00 0.00 96 1017.4
20260502022903 51 53 0.0 1.0 0.00 0.00 0.00 96 1017.5
20260502022824 51 53 0.0 1.0 0.00 0.00 0.00 96 1017.5
20260502022724 51 53 0.0 1.0 0.00 0.00 0.00 96 1017.4
20260502022603 51 53 0.0 1.0 0.00 0.00 0.00 96 1017.5
20260502022503 52 53 1.0 2.0 0.00 0.00 0.00 96 1017.4
20260502022424 52 53 1.0 2.0 0.00 0.00 0.00 96 1017.4
20260502022306 52 53 1.0 2.0 0.00 0.00 0.00 96 1017.5
20260502022203 52 53 1.0 2.0 0.00 0.00 0.00 96 1017.5
20260502022103 51 53 0.0 2.0 0.00 0.00 0.00 97 1017.4
20260502022003 51 53 0.0 2.0 0.00 0.00 0.00 97 1017.3
20260502021904 51 53 0.0 2.0 0.00 0.00 0.00 97 1017.6
20260502021824 51 53 0.0 2.0 0.00 0.00 0.00 97 1017.4
20260502021703 51 53 0.0 2.0 0.00 0.00 0.00 96 1017.4
20260502021603 51 52 0.0 2.0 0.00 0.00 0.00 96 1017.4
20260502021503 51 52 0.0 2.0 0.00 0.00 0.00 96 1017.5
20260502021403 51 51 0.0 1.0 0.00 0.00 0.00 96 1017.5
20260502021303 51 51 0.0 1.0 0.00 0.00 0.00 96 1017.4
20260502021203 51 51 0.0 1.0 0.00 0.00 0.00 96 1017.4
20260502021103 51 51 0.0 1.0 0.00 0.00 0.00 96 1017.4
20260502021003 51 51 0.0 1.0 0.00 0.00 0.00 96 1017.5
20260502020903 51 51 0.0 1.0 0.00 0.00 0.00 96 1017.4
20260502020803 52 51 0.0 1.0 0.00 0.00 0.00 96 1017.6
20260502020724 52 51 0.0 1.0 0.00 0.00 0.00 96 1017.5
20260502020624 52 51 0.0 1.0 0.00 0.00 0.00 96 1017.4
20260502020524 52 51 0.0 1.0 0.00 0.00 0.00 96 1017.5
20260502020403 52 51 0.0 1.0 0.00 0.00 0.00 96 1017.4
20260502020303 52 51 0.0 1.0 0.00 0.00 0.00 96 1017.5
20260502020203 52 51 0.0 1.0 0.00 0.00 0.00 96 1017.5
20260502020104 52 52 0.0 1.0 0.00 0.00 0.00 96 1017.6
20260502020003 52 52 0.0 1.0 0.00 0.00 0.00 96 1017.4
20260502015903 52 52 0.0 1.0 0.00 0.00 0.00 97 1017.6
20260502015804 52 52 0.0 1.0 0.00 0.00 0.00 97 1017.6
20260502015703 52 52 0.0 1.0 0.00 0.00 0.00 97 1017.7
20260502015603 52 52 0.0 1.0 0.00 0.00 0.00 97 1017.7
20260502015503 52 52 0.0 1.0 0.00 0.00 0.00 97 1017.7
20260502015403 52 52 0.0 1.0 0.00 0.00 0.00 96 1017.6
20260502015305 52 52 0.0 1.0 0.00 0.00 0.00 96 1017.5
20260502015203 52 52 0.0 1.0 0.00 0.00 0.00 96 1017.7
20260502015103 52 53 0.0 1.0 0.00 0.00 0.00 97 1017.7
20260502015024 52 52 0.0 1.0 0.00 0.00 0.00 96 1017.6
20260502014903 52 52 0.0 1.0 0.00 0.00 0.00 96 1017.6
20260502014803 52 52 0.0 1.0 0.00 0.00 0.00 96 1017.6
20260502014704 52 52 0.0 1.0 0.00 0.00 0.00 96 1017.6
20260502014603 52 52 0.0 1.0 0.00 0.00 0.00 96 1017.4
20260502014503 52 53 1.0 2.0 0.00 0.00 0.00 96 1017.7
20260502014403 52 53 1.0 2.0 0.00 0.00 0.00 96 1017.6
20260502014303 52 53 1.0 2.0 0.00 0.00 0.00 96 1017.7
20260502014203 52 53 1.0 2.0 0.00 0.00 0.00 96 1017.5
20260502014103 52 52 0.0 2.0 0.00 0.00 0.00 96 1017.8
20260502014003 52 52 0.0 2.0 0.00 0.00 0.00 96 1017.7
20260502013903 52 52 0.0 2.0 0.00 0.00 0.00 96 1017.7
20260502013824 52 52 0.0 2.0 0.00 0.00 0.00 96 1017.8
20260502013703 52 53 0.0 2.0 0.00 0.00 0.00 96 1017.7
20260502013624 52 53 0.0 2.0 0.00 0.00 0.00 96 1017.7
20260502013524 52 53 0.0 2.0 0.00 0.00 0.00 96 1017.8
20260502013403 52 50 0.0 1.0 0.00 0.00 0.00 96 1017.8
20260502013303 52 50 0.0 1.0 0.00 0.00 0.00 96 1017.8
20260502013203 52 50 0.0 1.0 0.00 0.00 0.00 96 1017.8
20260502013124 52 0 0.0 0.0 0.00 0.00 0.00 96 1017.8
20260502013003 52 0 0.0 0.0 0.00 0.00 0.00 96 1017.8
20260502012903 52 0 0.0 0.0 0.00 0.00 0.00 96 1017.9
20260502012824 52 0 0.0 0.0 0.00 0.00 0.00 96 1017.9
20260502012703 53 0 0.0 0.0 0.00 0.00 0.00 96 1017.9
20260502012624 53 0 0.0 0.0 0.00 0.00 0.00 96 1017.9
20260502012503 53 0 0.0 0.0 0.00 0.00 0.00 96 1017.8
20260502012403 53 0 0.0 0.0 0.00 0.00 0.00 96 1017.8
20260502012306 53 0 0.0 0.0 0.00 0.00 0.00 96 1017.8
20260502012203 53 0 0.0 0.0 0.00 0.00 0.00 96 1017.8
20260502012103 52 0 0.0 0.0 0.00 0.00 0.00 96 1017.9
20260502012003 52 0 0.0 0.0 0.00 0.00 0.00 96 1017.8
20260502011903 52 0 0.0 0.0 0.00 0.00 0.00 96 1017.8
20260502011803 52 0 0.0 0.0 0.00 0.00 0.00 96 1017.9
20260502011724 53 0 0.0 0.0 0.00 0.00 0.00 96 1017.8
20260502011603 53 0 0.0 0.0 0.00 0.00 0.00 96 1017.8
20260502011503 52 0 0.0 0.0 0.00 0.00 0.00 96 1017.7
20260502011403 52 0 0.0 0.0 0.00 0.00 0.00 96 1018.0
20260502011303 53 0 0.0 0.0 0.00 0.00 0.00 96 1017.7
20260502011203 53 0 0.0 0.0 0.00 0.00 0.00 96 1018.0
20260502011103 53 0 0.0 0.0 0.00 0.00 0.00 96 1017.9
20260502011003 53 0 0.0 0.0 0.00 0.00 0.00 96 1017.8
20260502010924 53 0 0.0 0.0 0.00 0.00 0.00 96 1017.8
20260502010803 53 0 0.0 0.0 0.00 0.00 0.00 96 1017.9
20260502010703 53 0 0.0 0.0 0.00 0.00 0.00 96 1017.9
20260502010603 53 0 0.0 0.0 0.00 0.00 0.00 96 1017.8
20260502010503 53 0 0.0 0.0 0.00 0.00 0.00 96 1018.0
20260502010403 53 0 0.0 0.0 0.00 0.00 0.00 96 1018.1
20260502010304 53 0 0.0 0.0 0.00 0.00 0.00 96 1017.9
20260502010203 53 0 0.0 0.0 0.00 0.00 0.00 96 1018.1
20260502010003 53 0 0.0 0.0 0.00 0.00 0.00 96 1018.0
20260502005903 53 0 0.0 0.0 0.00 0.00 0.00 96 1018.1
20260502005803 53 0 0.0 0.0 0.00 0.00 0.00 96 1018.1
20260502005703 53 0 0.0 0.0 0.00 0.00 0.00 96 1018.1
20260502005603 53 0 0.0 0.0 0.00 0.00 0.00 96 1018.1
20260502005503 53 0 0.0 0.0 0.00 0.00 0.00 96 1018.0
20260502005403 53 0 0.0 0.0 0.00 0.00 0.00 96 1018.0
20260502005305 53 0 0.0 0.0 0.00 0.00 0.00 96 1018.1
20260502005203 53 0 0.0 0.0 0.00 0.00 0.00 96 1018.1
20260502005103 53 0 0.0 0.0 0.00 0.00 0.00 96 1018.1
20260502005024 53 0 0.0 0.0 0.00 0.00 0.00 96 1018.1
20260502004903 53 0 0.0 0.0 0.00 0.00 0.00 95 1018.1
20260502004803 53 0 0.0 0.0 0.00 0.00 0.00 95 1018.1
20260502004703 53 0 0.0 0.0 0.00 0.00 0.00 95 1018.2
20260502004603 53 0 0.0 0.0 0.00 0.00 0.00 95 1018.0
20260502004503 53 0 0.0 0.0 0.00 0.00 0.00 95 1018.0
20260502004403 53 0 0.0 0.0 0.00 0.00 0.00 95 1018.0
20260502004324 53 0 0.0 0.0 0.00 0.00 0.00 95 1018.2
20260502004224 53 0 0.0 0.0 0.00 0.00 0.00 95 1018.1
20260502004103 53 0 0.0 0.0 0.00 0.00 0.00 95 1018.0
20260502004004 53 0 0.0 0.0 0.00 0.00 0.00 95 1018.3
20260502003924 53 12 0.0 1.0 0.00 0.00 0.00 95 1017.9
20260502003803 53 12 0.0 1.0 0.00 0.00 0.00 95 1018.0
20260502003703 53 12 0.0 1.0 0.00 0.00 0.00 95 1018.2
20260502003603 53 12 0.0 1.0 0.00 0.00 0.00 95 1018.2
20260502003503 53 12 0.0 1.0 0.00 0.00 0.00 95 1018.2
20260502003424 53 12 0.0 1.0 0.00 0.00 0.00 95 1018.1
20260502003303 53 12 0.0 1.0 0.00 0.00 0.00 95 1018.1
20260502003203 53 12 0.0 1.0 0.00 0.00 0.00 95 1018.1
20260502003103 53 12 0.0 1.0 0.00 0.00 0.00 95 1018.2
20260502003003 53 12 0.0 1.0 0.00 0.00 0.00 95 1018.1
20260502002924 53 12 0.0 1.0 0.00 0.00 0.00 95 1018.1
20260502002803 53 0 0.0 0.0 0.00 0.00 0.00 95 1018.1
20260502002703 53 0 0.0 0.0 0.00 0.00 0.00 95 1018.2
20260502002603 53 0 0.0 0.0 0.00 0.00 0.00 94 1018.3
20260502002503 53 0 0.0 0.0 0.00 0.00 0.00 94 1018.3
20260502002403 53 0 0.0 0.0 0.00 0.00 0.00 94 1018.1
20260502002305 53 0 0.0 0.0 0.00 0.00 0.00 94 1018.3
20260502002203 53 0 0.0 0.0 0.00 0.00 0.00 94 1018.1
20260502002103 53 0 0.0 0.0 0.00 0.00 0.00 94 1018.4
20260502002024 53 0 0.0 0.0 0.00 0.00 0.00 94 1018.4
20260502001903 54 0 0.0 0.0 0.00 0.00 0.00 94 1018.3
20260502001803 54 0 0.0 0.0 0.00 0.00 0.00 94 1018.2
20260502001703 54 0 0.0 0.0 0.00 0.00 0.00 94 1018.3
20260502001603 54 0 0.0 0.0 0.00 0.00 0.00 94 1018.4
20260502001503 54 0 0.0 0.0 0.00 0.00 0.00 94 1018.4
20260502001403 54 0 0.0 0.0 0.00 0.00 0.00 94 1018.2
20260502001303 54 0 0.0 0.0 0.00 0.00 0.00 94 1018.3
20260502001203 54 0 0.0 0.0 0.00 0.00 0.00 94 1018.2
20260502001104 54 0 0.0 0.0 0.00 0.00 0.00 94 1018.2
20260502001003 54 0 0.0 0.0 0.00 0.00 0.00 94 1018.4
20260502000903 54 0 0.0 0.0 0.00 0.00 0.00 94 1018.3
20260502000803 54 0 0.0 0.0 0.00 0.00 0.00 94 1018.3
20260502000703 54 0 0.0 0.0 0.00 0.00 0.00 94 1018.3
20260502000603 54 0 0.0 0.0 0.00 0.00 0.00 94 1018.4
20260502000503 54 0 0.0 0.0 0.00 0.00 0.00 94 1018.4
20260502000403 54 0 0.0 0.0 0.00 0.00 0.00 94 1018.4
20260502000303 54 0 0.0 0.0 0.00 0.00 0.00 94 1018.5
20260502000225 54 0 0.0 0.0 0.00 0.00 0.00 94 1018.6
20260502000003 54 0 0.0 0.0 0.00 0.00 0.00 94 1018.5
20260501235924 54 0 0.0 0.0 0.00 0.00 0.00 94 1018.4
20260501235803 54 0 0.0 0.0 0.00 0.00 0.00 94 1018.4
20260501235703 54 0 0.0 0.0 0.00 0.00 0.00 94 1018.4
20260501235624 54 0 0.0 0.0 0.00 0.00 0.00 94 1018.5
20260501235503 54 0 0.0 0.0 0.00 0.00 0.00 93 1018.4
20260501235403 54 0 0.0 0.0 0.00 0.00 0.00 93 1018.5
20260501235305 54 0 0.0 0.0 0.00 0.00 0.00 93 1018.6
20260501235203 54 0 0.0 0.0 0.00 0.00 0.00 93 1018.5
20260501235124 54 0 0.0 0.0 0.00 0.00 0.00 93 1018.5
20260501235003 54 0 0.0 0.0 0.00 0.00 0.00 93 1018.6
20260501234903 55 0 0.0 0.0 0.00 0.00 0.00 93 1018.7
20260501234803 55 0 0.0 0.0 0.00 0.00 0.00 93 1018.6
20260501234702 55 0 0.0 0.0 0.00 0.00 0.00 93 1018.6
20260501234623 55 0 0.0 0.0 0.00 0.00 0.00 93 1018.8
20260501234523 55 0 0.0 0.0 0.00 0.00 0.00 93 1018.7
20260501234402 55 0 0.0 0.0 0.00 0.00 0.00 93 1018.8
20260501234302 55 0 0.0 0.0 0.00 0.00 0.00 93 1018.8
20260501234203 55 0 0.0 0.0 0.00 0.00 0.00 93 1018.7
20260501234103 55 0 0.0 0.0 0.00 0.00 0.00 93 1018.7
20260501234003 55 0 0.0 0.0 0.00 0.00 0.00 93 1018.6
20260501233924 55 0 0.0 0.0 0.00 0.00 0.00 93 1018.7
20260501233802 55 0 0.0 0.0 0.00 0.00 0.00 93 1018.7
20260501233703 55 0 0.0 0.0 0.00 0.00 0.00 93 1018.7
20260501233603 55 0 0.0 0.0 0.00 0.00 0.00 93 1018.6
20260501233503 55 0 0.0 0.0 0.00 0.00 0.00 93 1018.7
20260501233402 55 0 0.0 0.0 0.00 0.00 0.00 93 1018.7
20260501233302 55 0 0.0 0.0 0.00 0.00 0.00 93 1018.9
20260501233202 56 0 0.0 0.0 0.00 0.00 0.00 93 1018.9
20260501233103 56 0 0.0 0.0 0.00 0.00 0.00 93 1018.9
20260501233003 56 0 0.0 0.0 0.00 0.00 0.00 93 1018.8
20260501232903 56 0 0.0 0.0 0.00 0.00 0.00 93 1018.7
20260501232803 56 0 0.0 0.0 0.00 0.00 0.00 93 1018.8
20260501232703 56 0 0.0 0.0 0.00 0.00 0.00 93 1018.7
20260501232603 56 0 0.0 0.0 0.00 0.00 0.00 93 1018.8
20260501232502 56 0 0.0 0.0 0.00 0.00 0.00 93 1018.8
20260501232403 56 0 0.0 0.0 0.00 0.00 0.00 93 1018.7
20260501232324 56 0 0.0 0.0 0.00 0.00 0.00 93 1018.7
20260501232203 56 7 0.0 1.0 0.00 0.00 0.00 93 1019.0
20260501232103 56 7 0.0 1.0 0.00 0.00 0.00 93 1018.9
20260501232002 56 7 0.0 1.0 0.00 0.00 0.00 93 1018.6
20260501231902 56 7 0.0 1.0 0.00 0.00 0.00 93 1019.0
20260501231802 56 7 0.0 1.0 0.00 0.00 0.00 92 1018.8
20260501231702 56 7 0.0 1.0 0.00 0.00 0.00 92 1019.0
20260501231603 56 7 0.0 1.0 0.00 0.00 0.00 92 1018.8
20260501231503 56 7 0.0 1.0 0.00 0.00 0.00 92 1018.8
20260501231402 56 7 0.0 1.0 0.00 0.00 0.00 92 1019.1
20260501231324 56 7 0.0 1.0 0.00 0.00 0.00 92 1019.0
20260501231202 56 7 0.0 1.0 0.00 0.00 0.00 92 1019.1
20260501231124 56 7 0.0 1.0 0.00 0.00 0.00 92 1019.2
20260501231003 56 7 0.0 1.0 0.00 0.00 0.00 92 1018.9
20260501230902 56 0 0.0 0.0 0.00 0.00 0.00 92 1019.0
20260501230803 56 0 0.0 0.0 0.00 0.00 0.00 92 1019.1
20260501230703 56 0 0.0 0.0 0.00 0.00 0.00 92 1019.0
20260501230602 56 0 0.0 0.0 0.00 0.00 0.00 92 1019.0
20260501230503 56 0 0.0 0.0 0.00 0.00 0.00 92 1019.1
20260501230403 56 0 0.0 0.0 0.00 0.00 0.00 92 1019.3
20260501230303 56 0 0.0 0.0 0.00 0.00 0.00 92 1019.0
20260501230202 56 0 0.0 0.0 0.00 0.00 0.00 92 1019.0
20260501230003 56 0 0.0 0.0 0.00 0.00 0.00 92 1019.0
20260501225902 56 0 0.0 0.0 0.00 0.00 0.00 92 1019.1
20260501225802 57 0 0.0 0.0 0.00 0.00 0.00 92 1019.0
20260501225724 57 0 0.0 0.0 0.00 0.00 0.00 92 1019.1
20260501225602 57 0 0.0 0.0 0.00 0.00 0.00 92 1019.0
20260501225503 57 0 0.0 0.0 0.00 0.00 0.00 92 1019.0
20260501225403 57 0 0.0 0.0 0.00 0.00 0.00 92 1019.0
20260501225305 57 0 0.0 0.0 0.00 0.00 0.00 92 1019.1
20260501225203 56 0 0.0 0.0 0.00 0.00 0.00 92 1019.2
20260501225102 56 0 0.0 0.0 0.00 0.00 0.00 92 1019.2
20260501225003 56 0 0.0 0.0 0.00 0.00 0.00 91 1019.1
20260501224903 56 0 0.0 0.0 0.00 0.00 0.00 91 1019.1
20260501224803 56 0 0.0 0.0 0.00 0.00 0.00 91 1019.0
20260501224703 56 0 0.0 0.0 0.00 0.00 0.00 91 1019.2
20260501224603 57 0 0.0 0.0 0.00 0.00 0.00 91 1019.0
20260501224503 57 0 0.0 0.0 0.00 0.00 0.00 91 1019.0